Погода в Уэлькале

Россия / Чукотский автономный округ     65°32′13″N   179°17′27″W
темп.,
°C
ветер,
м/с
пор.,
м/с
влажн.,
%
обл.,
%
осадки,
мм/ч
давл.,
гПа
погр.,
м
21 января, чт
чт2100:00−23св568899 0.0 1017209
03:00−22ссв5787100 0.0 1017227
06:00−21св61083100 0.0 1016243
09:00−21св6885100 0.0 1017234
12:00−21св81282100 0.0 1016280
15:00−20ссв121774100 0.0 1013294
18:00−21св132073100 0.0 1010487
21:00−20св162381100 0.3 1008691
22 января, пт
пт2200:00−20ссв172497100 1.6 1004758
03:00−19ссв172494100 2.6 1000778
06:00−21ссв172496100 3.3 997677
09:00−20ссв162398100 1.3 995652
12:00−20ссв152198100 2.6 994626
15:00−19ссв131998100 1.7 994545
18:00−19ссв121798100 3.4 996491
21:00−19ссв101398100 2.0 999347
23 января, сб
сб2300:00−18с3497100 3.1 1001231
03:00−18юз5697100 0.4 1004298
06:00−18юв3497100 0.4 1005140
09:00−18вюв3499100 0.1 1007143
12:00−20вюв11100100 0.1 100833
15:00−22с2210092 0.0 100920
18:00−23ссз3310091 0.0 101022
21:00−24ссз349840 0.0 101130
24 января, вс
вс2400:00−25сз459720 0.0 101266
03:00−25сз56940 0.0 101288
06:00−24сз568750 0.0 101294
09:00−23сз568389 0.0 101388
12:00−21ссз578395 0.0 1013210
15:00−21ссз5786100 0.0 1013216
18:00−19с5785100 0.0 1012324
21:00−19сз3383100 0.0 1012209
25 января, пн
пн2500:00−18ссв3497100 1.9 1011302
03:00−19св6998100 1.8 1011422
06:00−21св81296100 2.4 1011417
09:00−22св91285100 0.1 1011405
12:00−22ссв81190100 0.1 1010404
15:00−22ссв7999100 0.2 1010420
18:00−22ссв6898100 0.6 1010427
21:00−22ссв6798100 0.2 1011386